| time (UTC) | temp C | wind direction | speed KPH | gust KPH | rain 1hr cm | rain 24hr cm | rain mn cm | humidity % | barometer mb |
| 20260504214104 | 16 | 285 | 3.2 | 11.3 | 0.00 | 0.00 | 0.00 | 50 | 1015.4 |
| 20260504213604 | 16 | 246 | 3.2 | 12.9 | 0.00 | 0.00 | 0.00 | 50 | 1015.6 |
| 20260504213104 | 16 | 169 | 3.2 | 12.9 | 0.00 | 0.00 | 0.00 | 51 | 1015.6 |
| 20260504212604 | 16 | 264 | 4.8 | 14.5 | 0.00 | 0.00 | 0.00 | 50 | 1015.8 |
| 20260504211604 | 15 | 250 | 4.8 | 12.9 | 0.00 | 0.00 | 0.00 | 51 | 1015.7 |
| 20260504211104 | 15 | 278 | 3.2 | 14.5 | 0.00 | 0.00 | 0.00 | 53 | 1015.8 |
| 20260504210105 | 15 | 268 | 8.0 | 14.5 | 0.00 | 0.00 | 0.00 | 53 | 1015.9 |
| 20260504205604 | 15 | 286 | 8.0 | 19.3 | 0.00 | 0.00 | 0.00 | 52 | 1016.1 |
| 20260504205104 | 15 | 269 | 9.7 | 19.3 | 0.00 | 0.00 | 0.00 | 52 | 1016.1 |
| 20260504204604 | 15 | 288 | 8.0 | 19.3 | 0.00 | 0.00 | 0.00 | 52 | 1016.1 |
| 20260504204105 | 15 | 266 | 1.6 | 8.0 | 0.00 | 0.00 | 0.00 | 54 | 1016.0 |
| 20260504203604 | 15 | 265 | 4.8 | 9.7 | 0.00 | 0.00 | 0.00 | 53 | 1015.8 |
| 20260504203104 | 15 | 232 | 4.8 | 9.7 | 0.00 | 0.00 | 0.00 | 53 | 1016.1 |
| 20260504202604 | 15 | 357 | 1.6 | 4.8 | 0.00 | 0.00 | 0.00 | 54 | 1016.2 |
| 20260504202104 | 15 | 352 | 1.6 | 8.0 | 0.00 | 0.00 | 0.00 | 54 | 1016.2 |
| 20260504201606 | 15 | 253 | 4.8 | 8.0 | 0.00 | 0.00 | 0.00 | 54 | 1016.2 |
| 20260504200607 | 15 | 250 | 1.6 | 8.0 | 0.00 | 0.00 | 0.00 | 54 | 1016.2 |
| 20260504200105 | 15 | 251 | 6.4 | 8.0 | 0.00 | 0.00 | 0.00 | 53 | 1016.3 |
| 20260504195604 | 15 | 292 | 1.6 | 8.0 | 0.00 | 0.00 | 0.00 | 54 | 1016.3 |
| 20260504195105 | 15 | 319 | 1.6 | 8.0 | 0.00 | 0.00 | 0.00 | 53 | 1016.3 |
| 20260504193604 | 15 | 0 | 4.8 | 8.0 | 0.00 | 0.00 | 0.00 | 56 | 1016.3 |
| 20260504192604 | 14 | 270 | 1.6 | 9.7 | 0.00 | 0.00 | 0.00 | 58 | 1016.3 |
| 20260504192104 | 14 | 234 | 4.8 | 9.7 | 0.00 | 0.00 | 0.00 | 58 | 1016.7 |
| 20260504191605 | 14 | 295 | 4.8 | 9.7 | 0.00 | 0.00 | 0.00 | 58 | 1016.5 |
| 20260504191104 | 14 | 305 | 3.2 | 14.5 | 0.00 | 0.00 | 0.00 | 58 | 1016.7 |
| 20260504190604 | 14 | 357 | 4.8 | 14.5 | 0.00 | 0.00 | 0.00 | 58 | 1016.8 |
| 20260504190104 | 14 | 289 | 8.0 | 14.5 | 0.00 | 0.00 | 0.00 | 58 | 1016.8 |
| 20260504185604 | 14 | 257 | 4.8 | 11.3 | 0.00 | 0.00 | 0.00 | 58 | 1016.6 |
| 20260504185104 | 13 | 270 | 1.6 | 16.1 | 0.00 | 0.00 | 0.00 | 58 | 1016.5 |
| 20260504184604 | 13 | 292 | 4.8 | 16.1 | 0.00 | 0.00 | 0.00 | 58 | 1016.6 |
| 20260504184104 | 13 | 296 | 6.4 | 16.1 | 0.00 | 0.00 | 0.00 | 56 | 1016.7 |
| 20260504183604 | 13 | 278 | 3.2 | 14.5 | 0.00 | 0.00 | 0.00 | 56 | 1016.6 |
| 20260504182604 | 14 | 271 | 8.0 | 16.1 | 0.00 | 0.00 | 0.00 | 56 | 1016.8 |
| 20260504182104 | 14 | 296 | 9.7 | 16.1 | 0.00 | 0.00 | 0.00 | 55 | 1016.8 |
| 20260504181605 | 14 | 297 | 8.0 | 12.9 | 0.00 | 0.00 | 0.00 | 55 | 1016.8 |
| 20260504181104 | 14 | 272 | 6.4 | 11.3 | 0.00 | 0.00 | 0.00 | 56 | 1016.7 |
| 20260504180606 | 13 | 285 | 3.2 | 8.0 | 0.00 | 0.00 | 0.00 | 57 | 1016.7 |
| 20260504175104 | 13 | 269 | 4.8 | 12.9 | 0.00 | 0.00 | 0.00 | 57 | 1016.5 |
| 20260504174604 | 13 | 273 | 4.8 | 14.5 | 0.00 | 0.00 | 0.00 | 55 | 1016.3 |
| 20260504174104 | 13 | 271 | 8.0 | 14.5 | 0.00 | 0.00 | 0.00 | 56 | 1016.3 |
| 20260504173603 | 13 | 318 | 8.0 | 12.9 | 0.00 | 0.00 | 0.00 | 58 | 1016.3 |
| 20260504172604 | 13 | 175 | 1.6 | 4.8 | 0.00 | 0.00 | 0.00 | 66 | 1016.2 |
| 20260504172104 | 13 | 279 | 0.0 | 4.8 | 0.00 | 0.00 | 0.00 | 67 | 1016.3 |
| 20260504171104 | 12 | 272 | 1.6 | 4.8 | 0.00 | 0.00 | 0.00 | 68 | 1016.2 |
| 20260504170605 | 12 | 263 | 1.6 | 4.8 | 0.00 | 0.00 | 0.00 | 69 | 1016.2 |
| 20260504170105 | 12 | 254 | 0.0 | 1.6 | 0.00 | 0.00 | 0.00 | 70 | 1016.2 |
| 20260504160104 | 12 | 305 | 3.2 | 4.8 | 0.00 | 0.00 | 0.00 | 72 | 1015.9 |
| 20260504151105 | 11 | 327 | 1.6 | 8.0 | 0.00 | 0.00 | 0.00 | 77 | 1015.6 |
| 20260504150603 | 11 | 288 | 0.0 | 3.2 | 0.00 | 0.00 | 0.00 | 79 | 1015.6 |
| 20260504150104 | 11 | 298 | 1.6 | 3.2 | 0.00 | 0.00 | 0.00 | 80 | 1015.7 |
| 20260504141104 | 10 | 306 | 0.0 | 3.2 | 0.00 | 0.00 | 0.00 | 84 | 1015.5 |
| 20260504140606 | 10 | 290 | 0.0 | 3.2 | 0.00 | 0.00 | 0.00 | 84 | 1015.5 |
| 20260504140104 | 10 | 280 | 0.0 | 1.6 | 0.00 | 0.00 | 0.00 | 85 | 1015.5 |
| 20260504130607 | 11 | 278 | 1.6 | 4.8 | 0.00 | 0.00 | 0.00 | 83 | 1015.1 |
| 20260504130104 | 11 | 263 | 1.6 | 3.2 | 0.00 | 0.00 | 0.00 | 83 | 1015.2 |
| 20260504120104 | 11 | 178 | 0.0 | 1.6 | 0.00 | 0.03 | 0.00 | 79 | 1014.7 |
| 20260504110604 | 11 | 218 | 0.0 | 1.6 | 0.00 | 0.03 | 0.00 | 78 | 1014.8 |
| 20260504110104 | 11 | 235 | 0.0 | 1.6 | 0.00 | 0.03 | 0.00 | 78 | 1014.8 |
| 20260504100607 | 11 | 184 | 0.0 | 1.6 | 0.00 | 0.03 | 0.00 | 76 | 1014.4 |
| 20260504100105 | 11 | 184 | 0.0 | 1.6 | 0.00 | 0.03 | 0.00 | 76 | 1014.4 |
| 20260504090104 | 12 | 184 | 0.0 | 1.6 | 0.00 | 0.03 | 0.00 | 76 | 1014.6 |
| 20260504081104 | 12 | 171 | 0.0 | 1.6 | 0.00 | 0.03 | 0.00 | 73 | 1015.7 |
| 20260504080606 | 12 | 171 | 0.0 | 1.6 | 0.00 | 0.03 | 0.00 | 73 | 1016.1 |
| 20260504080104 | 12 | 171 | 0.0 | 1.6 | 0.00 | 0.03 | 0.00 | 74 | 1016.3 |
| 20260504070104 | 12 | 194 | 0.0 | 3.2 | 0.00 | 0.03 | 0.00 | 75 | 1015.7 |
| 20260504060104 | 12 | 194 | 0.0 | 1.6 | 0.00 | 0.03 | 0.03 | 73 | 1014.6 |
| 20260504050605 | 12 | 184 | 0.0 | 1.6 | 0.00 | 0.03 | 0.03 | 70 | 1015.2 |
| 20260504050104 | 12 | 184 | 0.0 | 3.2 | 0.00 | 0.03 | 0.03 | 70 | 1015.2 |
| 20260504045604 | 12 | 184 | 0.0 | 3.2 | 0.00 | 0.03 | 0.03 | 70 | 1015.2 |
| 20260504045105 | 12 | 255 | 1.6 | 4.8 | 0.00 | 0.03 | 0.03 | 69 | 1015.2 |
| 20260504044104 | 12 | 140 | 1.6 | 4.8 | 0.00 | 0.03 | 0.03 | 69 | 1015.2 |
| 20260504043604 | 12 | 0 | 1.6 | 4.8 | 0.00 | 0.03 | 0.03 | 69 | 1015.2 |
| 20260504043104 | 12 | 215 | 1.6 | 4.8 | 0.00 | 0.03 | 0.03 | 68 | 1015.2 |
| 20260504042604 | 12 | 345 | 1.6 | 4.8 | 0.00 | 0.03 | 0.03 | 68 | 1015.2 |
| 20260504042104 | 12 | 239 | 0.0 | 3.2 | 0.00 | 0.03 | 0.03 | 68 | 1015.0 |
| 20260504041606 | 12 | 182 | 1.6 | 3.2 | 0.00 | 0.03 | 0.03 | 68 | 1015.2 |
| 20260504041104 | 12 | 165 | 0.0 | 3.2 | 0.00 | 0.03 | 0.03 | 68 | 1015.2 |
| 20260504035604 | 12 | 191 | 0.0 | 1.6 | 0.00 | 0.03 | 0.03 | 68 | 1014.9 |
| 20260504034604 | 13 | 178 | 1.6 | 3.2 | 0.00 | 0.03 | 0.03 | 68 | 1015.0 |
| 20260504034104 | 13 | 309 | 1.6 | 3.2 | 0.00 | 0.03 | 0.03 | 68 | 1014.8 |
| 20260504033604 | 13 | 300 | 0.0 | 3.2 | 0.00 | 0.03 | 0.03 | 68 | 1014.6 |
| 20260504033104 | 13 | 336 | 0.0 | 9.7 | 0.00 | 0.03 | 0.03 | 68 | 1014.5 |
| 20260504032604 | 13 | 329 | 1.6 | 9.7 | 0.00 | 0.03 | 0.03 | 67 | 1014.6 |
| 20260504032104 | 13 | 1 | 1.6 | 9.7 | 0.00 | 0.03 | 0.03 | 67 | 1014.6 |
| 20260504031105 | 13 | 311 | 1.6 | 3.2 | 0.00 | 0.03 | 0.03 | 67 | 1014.2 |
| 20260504030104 | 13 | 240 | 1.6 | 4.8 | 0.00 | 0.03 | 0.03 | 66 | 1013.9 |
| 20260504025604 | 13 | 324 | 1.6 | 8.0 | 0.00 | 0.03 | 0.03 | 66 | 1013.9 |
| 20260504024103 | 13 | 310 | 1.6 | 9.7 | 0.00 | 0.03 | 0.03 | 66 | 1013.8 |
| 20260504023104 | 13 | 3 | 3.2 | 12.9 | 0.00 | 0.03 | 0.03 | 65 | 1013.5 |
| 20260504022604 | 14 | 351 | 3.2 | 11.3 | 0.00 | 0.03 | 0.03 | 65 | 1013.3 |
| 20260504022105 | 14 | 0 | 3.2 | 11.3 | 0.00 | 0.03 | 0.03 | 64 | 1013.2 |
| 20260504020607 | 15 | 339 | 1.6 | 14.5 | 0.00 | 0.03 | 0.03 | 63 | 1012.7 |
| 20260504020104 | 15 | 321 | 4.8 | 14.5 | 0.00 | 0.03 | 0.03 | 62 | 1012.6 |
| 20260504015605 | 16 | 342 | 3.2 | 14.5 | 0.00 | 0.03 | 0.03 | 61 | 1012.5 |
| 20260504015104 | 16 | 355 | 3.2 | 19.3 | 0.00 | 0.03 | 0.03 | 61 | 1012.3 |
| 20260504014604 | 16 | 332 | 4.8 | 19.3 | 0.00 | 0.03 | 0.03 | 60 | 1012.5 |
| 20260504014104 | 16 | 356 | 3.2 | 19.3 | 0.00 | 0.03 | 0.03 | 60 | 1012.5 |
| 20260504013604 | 16 | 0 | 3.2 | 19.3 | 0.00 | 0.03 | 0.03 | 59 | 1012.2 |
| 20260504013104 | 16 | 339 | 4.8 | 19.3 | 0.00 | 0.03 | 0.03 | 58 | 1012.4 |
| 20260504012604 | 17 | 298 | 6.4 | 14.5 | 0.00 | 0.03 | 0.03 | 58 | 1012.4 |
| 20260504012104 | 17 | 295 | 8.0 | 16.1 | 0.00 | 0.03 | 0.03 | 57 | 1012.4 |
| 20260504011604 | 17 | 318 | 4.8 | 16.1 | 0.00 | 0.03 | 0.03 | 57 | 1012.3 |
| 20260504011104 | 17 | 290 | 8.0 | 16.1 | 0.00 | 0.03 | 0.03 | 56 | 1012.2 |
| 20260504010104 | 18 | 357 | 8.0 | 14.5 | 0.00 | 0.03 | 0.03 | 54 | 1012.0 |
| 20260504005603 | 18 | 343 | 9.7 | 16.1 | 0.00 | 0.03 | 0.03 | 54 | 1012.0 |
| 20260504005105 | 18 | 309 | 9.7 | 19.3 | 0.00 | 0.03 | 0.03 | 54 | 1012.0 |
| 20260504004604 | 18 | 280 | 11.3 | 19.3 | 0.00 | 0.03 | 0.03 | 53 | 1012.0 |
| 20260504004104 | 19 | 276 | 9.7 | 19.3 | 0.00 | 0.03 | 0.03 | 52 | 1011.9 |
| 20260504003604 | 19 | 296 | 11.3 | 19.3 | 0.00 | 0.03 | 0.03 | 55 | 1011.9 |
| 20260504002604 | 20 | 277 | 9.7 | 16.1 | 0.00 | 0.03 | 0.03 | 53 | 1011.5 |
| 20260504002104 | 20 | 263 | 8.0 | 12.9 | 0.00 | 0.03 | 0.03 | 54 | 1011.3 |
| 20260504001606 | 18 | 282 | 1.6 | 4.8 | 0.00 | 0.03 | 0.03 | 60 | 1011.4 |
| 20260504000607 | 18 | 281 | 1.6 | 4.8 | 0.00 | 0.03 | 0.03 | 61 | 1011.5 |
| 20260504000104 | 18 | 283 | 3.2 | 4.8 | 0.00 | 0.03 | 0.03 | 61 | 1011.4 |
| 20260503235604 | 18 | 180 | 3.2 | 4.8 | 0.00 | 0.03 | 0.03 | 61 | 1011.3 |
| 20260503234604 | 18 | 76 | 3.2 | 8.0 | 0.00 | 0.03 | 0.03 | 62 | 1011.7 |
| 20260503234104 | 18 | 51 | 1.6 | 4.8 | 0.00 | 0.03 | 0.03 | 65 | 1011.8 |
| 20260503233604 | 17 | 53 | 0.0 | 4.8 | 0.00 | 0.03 | 0.03 | 65 | 1011.7 |
| 20260503233103 | 17 | 52 | 0.0 | 8.0 | 0.00 | 0.03 | 0.03 | 67 | 1011.7 |
| 20260503232604 | 17 | 74 | 1.6 | 8.0 | 0.00 | 0.03 | 0.03 | 66 | 1011.8 |
| 20260503232104 | 17 | 68 | 1.6 | 8.0 | 0.00 | 0.03 | 0.03 | 67 | 1012.0 |
| 20260503231604 | 17 | 16 | 4.8 | 11.3 | 0.00 | 0.03 | 0.03 | 66 | 1012.2 |
| 20260503231104 | 17 | 56 | 1.6 | 11.3 | 0.00 | 0.03 | 0.03 | 66 | 1012.2 |
| 20260503230104 | 17 | 80 | 3.2 | 8.0 | 0.00 | 0.03 | 0.03 | 64 | 1012.1 |
| 20260503225604 | 17 | 121 | 1.6 | 4.8 | 0.00 | 0.03 | 0.03 | 64 | 1012.2 |
| 20260503225104 | 17 | 121 | 1.6 | 4.8 | 0.00 | 0.03 | 0.03 | 66 | 1012.2 |
| 20260503224604 | 17 | 136 | 1.6 | 4.8 | 0.00 | 0.03 | 0.03 | 66 | 1012.2 |
| 20260503224104 | 17 | 140 | 0.0 | 3.2 | 0.00 | 0.03 | 0.03 | 67 | 1012.3 |
| 20260503223604 | 17 | 140 | 0.0 | 3.2 | 0.00 | 0.03 | 0.03 | 69 | 1012.5 |
| 20260503223104 | 17 | 136 | 1.6 | 3.2 | 0.00 | 0.03 | 0.03 | 70 | 1012.6 |
| 20260503222604 | 16 | 150 | 0.0 | 4.8 | 0.00 | 0.03 | 0.03 | 72 | 1012.6 |
| 20260503222104 | 16 | 149 | 1.6 | 4.8 | 0.00 | 0.03 | 0.03 | 72 | 1012.7 |
| 20260503221606 | 16 | 282 | 0.0 | 4.8 | 0.00 | 0.03 | 0.03 | 73 | 1012.7 |
| 20260503221104 | 15 | 271 | 3.2 | 8.0 | 0.00 | 0.03 | 0.03 | 73 | 1012.8 |
| 20260503220605 | 15 | 269 | 3.2 | 11.3 | 0.00 | 0.03 | 0.03 | 74 | 1012.8 |
| 20260503220104 | 15 | 293 | 4.8 | 11.3 | 0.00 | 0.03 | 0.03 | 74 | 1012.7 |
| 20260503215604 | 15 | 270 | 4.8 | 11.3 | 0.00 | 0.03 | 0.03 | 75 | 1012.8 |